WESTFORD NEEDLES, 2531

Orbit data source: Space-Track

WESTFORD NEEDLES, 2531 is space debris in LEO originally from a launch on Thu, 09 May 1963 UTC launched from the Air Force Western Test Range (AFWTR). Debris objects in space refer to the collection of defunct objects orbiting the Earth. Examples of debris include non-operational satellites, rocket bodies, and fragments generated from explosions, collisions, or faulty payload assembly.

Loading next visibility...
Identifier
2531, 1963-014AK
Orbit
LEO
Country
Flag of USUS
Related business
Manufacturer
Unknown
Mission
Spacecraft
Bus & Motor
Unknown
Mass
Unknown
Launch date (UTC)
1963-05-09 (62 years ago)
Launch vehicle
Unknown
Launch site
Air Force Western Test Range (AFWTR)
Object type
Payload
Rocket body
Debris
Shape & HBR
Unknown
Radar Cross Section
Medium (>0.1 m² and <1 m²)

Expand to show TLE details & history
Last TLE update: 1 year ago

TLE from 1 year ago
0 WESTFORD NEEDLES
1  2531U 63014AK  24152.18667443  .00000001  00000-0 -10627-2 0  9998
2  2531  87.3002 233.7703 0023550 107.9316 252.4109  8.67338680362575
Epoch: 2024-05-31T04:28Z
TLE epoch observation values (Epoch: 2024-05-31T04:28:48.67Z)
Latitude
-0.00008°
Longitude
-82.60187°
Altitude
3,637.583 km
Speed
6.307 km/s
True Right ascension
15h 35m 04s
True Declination
0° 00' 00"
Sunlit
Object was in full shadow at epoch
Visualization orbit readout
Latitude
Unknown
Longitude
Unknown
Altitude
Unknown
Speed
Unknown
Apparent Right ascension
Unknown
Apparent Declination
Unknown
Sunlit
N/A
Visualization observer readout
Local Sidereal Time
19:36:05
Azimuth
Unknown
Elevation
Unknown
Doppler factor
Unknown
Orbital elements
Apogee altitude
3,649.601 km
Perigee altitude
3,602.481 km
Semi-major axis
10,004.178 km
Eccentricity
0.00236
Inclination
87.3002°
RAAN
233.7703°
Arg. of periapsis
107.9316°
True anomaly
252.15388°
Mean anomaly
252.4109°
Eccentric anomaly
252.28237°
Mean motion
2.16906 °/min
Orbital period
165.97 mins
BSTAR
-0.0010627
Loading maneuver chart data...
Computing Atmospheric mass density...

Documentation

Showing up to 5 results
|